Location: ?????
(30.2541°N, 31.0910°E)
Time: 09:22:46
(UTC+00:00)

Cosmos 1633 Rocket - Pass Details

Date: 11 April 2023
Orbit: 604 x 623 km, 82.5° (Epoch: 29 May)

Event Time Altitude Azimuth Distance (km) Brightness Sun altitude
Rises 00:21:05 0° 13° (NNE) 2,887 7.1 -38.3°
Reaches altitude 10° 00:23:54 10° 32° (NNE) 1,974 6.3 -37.9°
Enters shadow 00:24:58 14° 44° (NE) 1,708 6.0 -37.7°
